Вернуться в каталог

CZ-3C DEB

АктивенGTO
NORAD 40834·DEBRIS·🇨🇳 China

Запущен Oct 31, 2010 с Xichang Satellite Launch Center

Loading…

TLE

УстаревшееSource: Space-Track

Эпоха: Sep 11, 2026, 18:32 UTC

1 40834U 10057BB  26254.77278040  .00000027  00000-0  73375-3 0  9993
2 40834  19.8921 107.9284 7198951 144.6229 296.7783  2.19674302 92412

Отслеживайте CZ-3C DEB в реальном времени с AllMySat

Download on the App Store